User: anonymous   Login
Location: Holcomb Observatory
(44.4922°N, 73.1654°W)
Time: 14:11:35
(UTC-05:00)
Language:

SL-16 R/B - Orbit

View from above orbital plane
View from above orbital plane
View from above satellite
View from above satellite

Ground track
Ground track

The orbit data is extracted from the following two-line orbital elements,

1 27006U 01056F   17050.08127788 -.00000051  00000-0 -85103-5 0  9991
2 27006  99.2924 195.0207 0013825 256.6512 231.9519 13.70972205760315
Epoch (UTC): 19 February 2017 01:57:02
Eccentricity: 0.0013825
inclination: 99.2924°
perigee height: 986 km
apogee height: 1006 km
right ascension of ascending node: 195.0207°
argument of perigee: 256.6512°
revolutions per day: 13.70972205
mean anomaly at epoch: 231.9519°
orbit number at epoch: 76031

The dashed part of the orbit path shows where the satellite is in the earth's shadow,  

DLR